| time (UTC) | temp F | wind direction | speed MPH | gust MPH | rain 1hr in | rain 24hr in | rain mn in | humidity % | barometer mb |
| 20260506211804 | 76 | 322 | 5.0 | 7.0 | 0.00 | 0.00 | 0.00 | 53 | 1022.2 |
| 20260506210904 | 75 | 288 | 5.0 | 6.0 | 0.00 | 0.00 | 0.00 | 54 | 1022.4 |
| 20260506210009 | 74 | 256 | 6.0 | 7.0 | 0.00 | 0.00 | 0.00 | 57 | 1022.4 |
| 20260506205404 | 73 | 311 | 7.0 | 8.0 | 0.00 | 0.00 | 0.00 | 60 | 1022.7 |
| 20260506204505 | 74 | 306 | 6.0 | 7.0 | 0.00 | 0.00 | 0.00 | 57 | 1022.7 |
| 20260506203603 | 74 | 329 | 5.0 | 8.0 | 0.00 | 0.00 | 0.00 | 55 | 1022.9 |
| 20260506202705 | 74 | 303 | 5.0 | 8.0 | 0.00 | 0.00 | 0.00 | 56 | 1022.8 |
| 20260506201803 | 73 | 283 | 6.0 | 9.0 | 0.00 | 0.00 | 0.00 | 59 | 1022.8 |
| 20260506200904 | 72 | 317 | 6.0 | 8.0 | 0.00 | 0.00 | 0.00 | 59 | 1023.2 |
| 20260506200004 | 73 | 281 | 5.0 | 8.0 | 0.00 | 0.00 | 0.00 | 60 | 1023.0 |
| 20260506195614 | 71 | 271 | 6.0 | 8.0 | 0.00 | 0.00 | 0.00 | 62 | 1023.1 |
| 20260506194503 | 71 | 319 | 5.0 | 7.0 | 0.00 | 0.00 | 0.00 | 63 | 1023.2 |
| 20260506193607 | 71 | 279 | 5.0 | 7.0 | 0.00 | 0.00 | 0.00 | 62 | 1023.3 |
| 20260506192933 | 72 | 257 | 6.0 | 7.0 | 0.00 | 0.00 | 0.00 | 63 | 1023.3 |
| 20260506191804 | 70 | 328 | 4.0 | 7.0 | 0.00 | 0.00 | 0.00 | 64 | 1023.5 |
| 20260506190903 | 72 | 317 | 6.0 | 8.0 | 0.00 | 0.00 | 0.00 | 64 | 1023.9 |
| 20260506190003 | 70 | 306 | 7.0 | 9.0 | 0.00 | 0.00 | 0.00 | 67 | 1023.7 |
| 20260506185403 | 72 | 317 | 7.0 | 10.0 | 0.00 | 0.00 | 0.00 | 65 | 1023.7 |
| 20260506184505 | 70 | 334 | 6.0 | 10.0 | 0.00 | 0.00 | 0.00 | 67 | 1023.7 |
| 20260506183815 | 68 | 328 | 6.0 | 11.0 | 0.00 | 0.00 | 0.00 | 67 | 1023.8 |
| 20260506182914 | 68 | 311 | 6.0 | 9.0 | 0.00 | 0.00 | 0.00 | 67 | 1023.7 |
| 20260506181804 | 69 | 339 | 6.0 | 9.0 | 0.00 | 0.00 | 0.00 | 67 | 1024.0 |
| 20260506180905 | 70 | 337 | 5.0 | 8.0 | 0.00 | 0.00 | 0.00 | 67 | 1024.0 |
| 20260506180214 | 68 | 334 | 6.0 | 8.0 | 0.00 | 0.00 | 0.00 | 70 | 1024.0 |
| 20260506175404 | 69 | 335 | 5.0 | 6.0 | 0.00 | 0.00 | 0.00 | 69 | 1024.0 |
| 20260506174504 | 67 | 325 | 6.0 | 8.0 | 0.00 | 0.00 | 0.00 | 72 | 1023.8 |
| 20260506173603 | 67 | 344 | 5.0 | 8.0 | 0.00 | 0.00 | 0.00 | 71 | 1024.0 |
| 20260506172703 | 67 | 325 | 5.0 | 8.0 | 0.00 | 0.00 | 0.00 | 72 | 1024.1 |
| 20260506171804 | 66 | 325 | 6.0 | 9.0 | 0.00 | 0.00 | 0.00 | 74 | 1024.0 |
| 20260506171115 | 66 | 353 | 5.0 | 6.0 | 0.00 | 0.00 | 0.00 | 72 | 1024.0 |
| 20260506170007 | 65 | 336 | 5.0 | 7.0 | 0.00 | 0.00 | 0.00 | 75 | 1024.0 |
| 20260506165403 | 65 | 335 | 5.0 | 8.0 | 0.00 | 0.00 | 0.00 | 76 | 1024.0 |
| 20260506164505 | 64 | 338 | 6.0 | 9.0 | 0.00 | 0.00 | 0.00 | 76 | 1024.1 |
| 20260506163603 | 64 | 337 | 7.0 | 9.0 | 0.00 | 0.00 | 0.00 | 78 | 1024.0 |
| 20260506162703 | 63 | 341 | 5.0 | 8.0 | 0.00 | 0.00 | 0.00 | 78 | 1024.2 |
| 20260506162013 | 64 | 351 | 5.0 | 6.0 | 0.00 | 0.00 | 0.00 | 75 | 1024.1 |
| 20260506160904 | 62 | 332 | 6.0 | 7.0 | 0.00 | 0.00 | 0.00 | 79 | 1024.3 |
| 20260506160007 | 63 | 340 | 5.0 | 8.0 | 0.00 | 0.00 | 0.00 | 79 | 1024.2 |
| 20260506155404 | 61 | 333 | 7.0 | 8.0 | 0.00 | 0.00 | 0.00 | 80 | 1024.1 |
| 20260506154507 | 60 | 332 | 7.0 | 8.0 | 0.00 | 0.00 | 0.00 | 82 | 1023.9 |
| 20260506153603 | 61 | 334 | 5.0 | 6.0 | 0.00 | 0.00 | 0.00 | 81 | 1024.3 |
| 20260506152703 | 60 | 325 | 6.0 | 8.0 | 0.00 | 0.00 | 0.00 | 84 | 1024.1 |
| 20260506151805 | 60 | 343 | 5.0 | 8.0 | 0.00 | 0.00 | 0.00 | 84 | 1024.1 |
| 20260506151114 | 60 | 339 | 5.0 | 7.0 | 0.00 | 0.00 | 0.00 | 85 | 1024.2 |
| 20260506150005 | 59 | 333 | 5.0 | 8.0 | 0.00 | 0.00 | 0.00 | 86 | 1024.0 |
| 20260506145404 | 59 | 335 | 5.0 | 7.0 | 0.00 | 0.00 | 0.00 | 88 | 1024.5 |
| 20260506144505 | 58 | 349 | 4.0 | 7.0 | 0.00 | 0.00 | 0.00 | 89 | 1024.2 |
| 20260506143603 | 58 | 347 | 4.0 | 7.0 | 0.00 | 0.00 | 0.00 | 91 | 1024.1 |
| 20260506142703 | 57 | 347 | 3.0 | 4.0 | 0.00 | 0.00 | 0.00 | 92 | 1024.1 |
| 20260506141804 | 57 | 347 | 3.0 | 3.0 | 0.00 | 0.00 | 0.00 | 93 | 1024.1 |
| 20260506140904 | 56 | 351 | 2.0 | 3.0 | 0.00 | 0.00 | 0.00 | 93 | 1023.9 |
| 20260506140007 | 56 | 357 | 1.0 | 1.0 | 0.00 | 0.00 | 0.00 | 94 | 1023.6 |
| 20260506135404 | 55 | 350 | 1.0 | 1.0 | 0.00 | 0.00 | 0.00 | 96 | 1023.8 |
| 20260506134505 | 54 | 342 | 0.0 | 1.0 | 0.00 | 0.00 | 0.00 | 97 | 1023.7 |
| 20260506133604 | 54 | 340 | 0.0 | 1.0 | 0.00 | 0.00 | 0.00 | 98 | 1023.5 |
| 20260506132704 | 53 | 0 | 0.0 | 0.0 | 0.00 | 0.00 | 0.00 | 98 | 1023.4 |
| 20260506132014 | 53 | 331 | 0.0 | 1.0 | 0.00 | 0.00 | 0.00 | 98 | 1023.5 |
| 20260506131115 | 54 | 324 | 1.0 | 2.0 | 0.00 | 0.00 | 0.00 | 98 | 1023.1 |
| 20260506130004 | 54 | 326 | 2.0 | 2.0 | 0.00 | 0.00 | 0.00 | 97 | 1023.4 |
| 20260506125405 | 54 | 328 | 1.0 | 2.0 | 0.00 | 0.00 | 0.00 | 97 | 1023.2 |
| 20260506124713 | 54 | 331 | 1.0 | 2.0 | 0.00 | 0.00 | 0.00 | 98 | 1023.2 |
| 20260506123603 | 54 | 331 | 1.0 | 2.0 | 0.00 | 0.00 | 0.00 | 97 | 1023.3 |
| 20260506122703 | 54 | 321 | 2.0 | 3.0 | 0.00 | 0.00 | 0.00 | 97 | 1023.1 |
| 20260506121804 | 54 | 329 | 2.0 | 3.0 | 0.00 | 0.00 | 0.00 | 97 | 1023.3 |
| 20260506120905 | 54 | 321 | 2.0 | 3.0 | 0.00 | 0.00 | 0.00 | 97 | 1023.3 |
| 20260506120004 | 53 | 329 | 2.0 | 3.0 | 0.00 | 0.00 | 0.00 | 97 | 1023.0 |
| 20260506115403 | 53 | 327 | 3.0 | 6.0 | 0.00 | 0.00 | 0.00 | 97 | 1022.9 |
| 20260506114713 | 53 | 325 | 3.0 | 6.0 | 0.00 | 0.00 | 0.00 | 97 | 1023.0 |
| 20260506113603 | 53 | 334 | 2.0 | 3.0 | 0.00 | 0.00 | 0.00 | 98 | 1022.8 |
| 20260506112703 | 52 | 342 | 0.0 | 1.0 | 0.00 | 0.00 | 0.00 | 98 | 1023.0 |
| 20260506111803 | 52 | 350 | 0.0 | 1.0 | 0.00 | 0.00 | 0.00 | 98 | 1023.2 |
| 20260506110904 | 52 | 337 | 1.0 | 2.0 | 0.00 | 0.00 | 0.00 | 98 | 1023.0 |
| 20260506110214 | 52 | 337 | 0.0 | 2.0 | 0.00 | 0.00 | 0.00 | 98 | 1022.8 |
| 20260506105405 | 52 | 357 | 0.0 | 2.0 | 0.00 | 0.00 | 0.00 | 98 | 1022.9 |
| 20260506104504 | 52 | 338 | 1.0 | 2.0 | 0.00 | 0.00 | 0.00 | 98 | 1022.8 |
| 20260506103604 | 52 | 0 | 0.0 | 0.0 | 0.00 | 0.00 | 0.00 | 98 | 1023.1 |
| 20260506102703 | 52 | 331 | 1.0 | 1.0 | 0.00 | 0.00 | 0.00 | 97 | 1022.7 |
| 20260506101804 | 53 | 337 | 1.0 | 2.0 | 0.00 | 0.00 | 0.00 | 96 | 1022.7 |
| 20260506101114 | 53 | 335 | 2.0 | 3.0 | 0.00 | 0.00 | 0.00 | 96 | 1022.6 |
| 20260506100004 | 53 | 339 | 4.0 | 6.0 | 0.00 | 0.00 | 0.00 | 96 | 1022.3 |
| 20260506095403 | 53 | 337 | 4.0 | 4.0 | 0.00 | 0.00 | 0.00 | 96 | 1022.4 |
| 20260506094504 | 53 | 330 | 4.0 | 6.0 | 0.00 | 0.00 | 0.00 | 96 | 1022.3 |
| 20260506093815 | 53 | 330 | 2.0 | 3.0 | 0.00 | 0.00 | 0.00 | 96 | 1022.2 |
| 20260506092704 | 53 | 336 | 4.0 | 6.0 | 0.00 | 0.00 | 0.00 | 96 | 1022.2 |
| 20260506091804 | 53 | 329 | 1.0 | 3.0 | 0.00 | 0.00 | 0.00 | 97 | 1022.0 |
| 20260506090903 | 53 | 0 | 0.0 | 0.0 | 0.00 | 0.00 | 0.00 | 97 | 1022.2 |
| 20260506090004 | 53 | 0 | 0.0 | 0.0 | 0.00 | 0.00 | 0.00 | 97 | 1022.1 |
| 20260506085403 | 53 | 0 | 0.0 | 0.0 | 0.00 | 0.00 | 0.00 | 96 | 1022.4 |
| 20260506084507 | 53 | 322 | 1.0 | 3.0 | 0.00 | 0.00 | 0.00 | 96 | 1022.3 |
| 20260506083603 | 53 | 326 | 1.0 | 2.0 | 0.00 | 0.01 | 0.00 | 96 | 1022.2 |
| 20260506082703 | 53 | 331 | 1.0 | 1.0 | 0.00 | 0.01 | 0.00 | 97 | 1022.3 |
| 20260506081804 | 53 | 329 | 0.0 | 1.0 | 0.00 | 0.01 | 0.00 | 97 | 1022.6 |
| 20260506081113 | 53 | 0 | 0.0 | 0.0 | 0.00 | 0.01 | 0.00 | 97 | 1023.0 |
| 20260506072704 | 54 | 323 | 3.0 | 3.0 | 0.00 | 0.04 | 0.00 | 93 | 1022.5 |
| 20260506071803 | 54 | 321 | 3.0 | 3.0 | 0.00 | 0.05 | 0.00 | 93 | 1022.2 |
| 20260506070903 | 54 | 334 | 2.0 | 3.0 | 0.00 | 0.05 | 0.00 | 93 | 1022.1 |
| 20260506070115 | 54 | 333 | 1.0 | 3.0 | 0.00 | 0.05 | 0.00 | 93 | 1022.1 |
| 20260506061803 | 55 | 329 | 3.0 | 4.0 | 0.00 | 0.05 | 0.05 | 91 | 1021.5 |
| 20260506060906 | 55 | 333 | 2.0 | 3.0 | 0.00 | 0.05 | 0.05 | 91 | 1021.5 |
| 20260506050907 | 57 | 0 | 0.0 | 0.0 | 0.00 | 0.05 | 0.05 | 91 | 1020.9 |
| 20260506044503 | 58 | 344 | 0.0 | 1.0 | 0.00 | 0.05 | 0.05 | 89 | 1020.7 |
| 20260506043815 | 58 | 328 | 1.0 | 1.0 | 0.00 | 0.05 | 0.05 | 88 | 1020.7 |
| 20260506042704 | 58 | 339 | 0.0 | 1.0 | 0.00 | 0.05 | 0.05 | 88 | 1020.4 |
| 20260506042014 | 59 | 340 | 1.0 | 2.0 | 0.00 | 0.05 | 0.05 | 87 | 1020.5 |
| 20260506040903 | 59 | 335 | 2.0 | 2.0 | 0.00 | 0.05 | 0.05 | 87 | 1020.0 |
| 20260506040006 | 59 | 334 | 1.0 | 2.0 | 0.00 | 0.05 | 0.05 | 87 | 1020.1 |
| 20260506035403 | 59 | 336 | 1.0 | 1.0 | 0.00 | 0.05 | 0.05 | 87 | 1020.1 |
| 20260506034505 | 59 | 329 | 1.0 | 3.0 | 0.00 | 0.05 | 0.05 | 86 | 1020.0 |
| 20260506033604 | 60 | 326 | 3.0 | 3.0 | 0.00 | 0.05 | 0.05 | 86 | 1019.9 |
| 20260506032914 | 60 | 330 | 2.0 | 3.0 | 0.00 | 0.05 | 0.05 | 86 | 1019.8 |
| 20260506032015 | 60 | 331 | 2.0 | 3.0 | 0.00 | 0.05 | 0.05 | 85 | 1019.6 |
| 20260506030909 | 60 | 334 | 1.0 | 2.0 | 0.00 | 0.05 | 0.05 | 85 | 1019.5 |
| 20260506030007 | 61 | 333 | 2.0 | 2.0 | 0.00 | 0.05 | 0.05 | 84 | 1019.5 |
| 20260506025404 | 61 | 337 | 2.0 | 3.0 | 0.00 | 0.05 | 0.05 | 83 | 1019.7 |
| 20260506024715 | 62 | 339 | 3.0 | 3.0 | 0.00 | 0.05 | 0.05 | 82 | 1019.6 |
| 20260506023814 | 62 | 327 | 2.0 | 2.0 | 0.00 | 0.05 | 0.05 | 80 | 1019.4 |
| 20260506022705 | 63 | 328 | 3.0 | 3.0 | 0.00 | 0.05 | 0.05 | 79 | 1019.5 |
| 20260506021804 | 63 | 326 | 3.0 | 3.0 | 0.00 | 0.05 | 0.05 | 78 | 1019.1 |
| 20260506020907 | 63 | 312 | 3.0 | 4.0 | 0.00 | 0.05 | 0.05 | 77 | 1019.2 |
| 20260506020003 | 64 | 292 | 4.0 | 6.0 | 0.00 | 0.05 | 0.05 | 76 | 1019.1 |
| 20260506015404 | 63 | 271 | 5.0 | 7.0 | 0.00 | 0.05 | 0.05 | 77 | 1019.0 |
| 20260506014503 | 63 | 243 | 5.0 | 7.0 | 0.00 | 0.05 | 0.05 | 77 | 1019.1 |
| 20260506013612 | 64 | 302 | 4.0 | 4.0 | 0.00 | 0.05 | 0.05 | 76 | 1019.1 |
| 20260506012704 | 64 | 294 | 5.0 | 7.0 | 0.00 | 0.05 | 0.05 | 76 | 1019.1 |
| 20260506011803 | 64 | 245 | 5.0 | 7.0 | 0.00 | 0.05 | 0.05 | 77 | 1019.0 |
| 20260506010905 | 65 | 283 | 4.0 | 6.0 | 0.00 | 0.05 | 0.05 | 75 | 1019.3 |
| 20260506010007 | 66 | 274 | 4.0 | 6.0 | 0.00 | 0.05 | 0.05 | 73 | 1019.3 |
| 20260506005408 | 66 | 269 | 4.0 | 6.0 | 0.00 | 0.05 | 0.05 | 74 | 1019.2 |
| 20260506004509 | 66 | 275 | 3.0 | 4.0 | 0.00 | 0.05 | 0.05 | 73 | 1019.4 |
| 20260506003604 | 66 | 296 | 4.0 | 4.0 | 0.00 | 0.05 | 0.05 | 73 | 1019.4 |
| 20260506002912 | 65 | 302 | 2.0 | 3.0 | 0.00 | 0.05 | 0.05 | 75 | 1019.4 |
| 20260506002014 | 64 | 316 | 3.0 | 3.0 | 0.00 | 0.05 | 0.05 | 76 | 1019.1 |
| 20260506000904 | 64 | 272 | 3.0 | 4.0 | 0.00 | 0.05 | 0.05 | 74 | 1019.1 |
| 20260506000215 | 64 | 288 | 3.0 | 6.0 | 0.00 | 0.05 | 0.05 | 74 | 1019.1 |
| 20260505235404 | 64 | 271 | 4.0 | 6.0 | 0.00 | 0.05 | 0.05 | 76 | 1019.1 |
| 20260505234714 | 64 | 320 | 3.0 | 3.0 | 0.00 | 0.05 | 0.05 | 75 | 1019.0 |
| 20260505233604 | 64 | 320 | 4.0 | 6.0 | 0.00 | 0.05 | 0.05 | 75 | 1019.0 |
| 20260505232704 | 65 | 298 | 5.0 | 7.0 | 0.00 | 0.05 | 0.05 | 73 | 1019.0 |
| 20260505231804 | 65 | 320 | 4.0 | 4.0 | 0.00 | 0.05 | 0.05 | 75 | 1019.1 |
| 20260505231115 | 64 | 293 | 5.0 | 7.0 | 0.00 | 0.05 | 0.05 | 76 | 1019.2 |
| 20260505230006 | 63 | 290 | 4.0 | 6.0 | 0.00 | 0.05 | 0.05 | 77 | 1019.0 |
| 20260505225403 | 62 | 311 | 5.0 | 7.0 | 0.00 | 0.05 | 0.05 | 79 | 1019.1 |
| 20260505224504 | 63 | 288 | 5.0 | 7.0 | 0.00 | 0.05 | 0.05 | 78 | 1019.3 |
| 20260505223603 | 63 | 302 | 5.0 | 7.0 | 0.00 | 0.05 | 0.05 | 77 | 1019.2 |
| 20260505222704 | 64 | 305 | 5.0 | 7.0 | 0.00 | 0.05 | 0.05 | 77 | 1019.3 |
| 20260505221803 | 64 | 295 | 6.0 | 8.0 | 0.00 | 0.05 | 0.05 | 76 | 1019.5 |
| 20260505220904 | 63 | 313 | 6.0 | 8.0 | 0.00 | 0.05 | 0.05 | 77 | 1019.4 |
| 20260505220005 | 63 | 316 | 7.0 | 10.0 | 0.00 | 0.05 | 0.05 | 78 | 1019.5 |
| 20260505215404 | 62 | 321 | 6.0 | 10.0 | 0.00 | 0.05 | 0.05 | 79 | 1019.6 |
| 20260505214715 | 63 | 308 | 4.0 | 4.0 | 0.00 | 0.05 | 0.05 | 76 | 1019.4 |
| 20260505213604 | 63 | 320 | 5.0 | 7.0 | 0.00 | 0.05 | 0.05 | 76 | 1019.7 |
| 20260505212703 | 61 | 313 | 5.0 | 7.0 | 0.00 | 0.05 | 0.05 | 80 | 1019.5 |